[[{"header":{"parameterUnit":"m.s-1","parameterCategory":2,"la1":30.2991,"la2":30.254,"lo1":-89.0895,"lo2":-89.0444,"dy":0.0017,"dx":0.0017,"nx":28,"ny":28,"refTime":"2023-07-26T21:00:00:Z","depth":"0","parameterNumber":2,"parameterNumberName":"U-component_of_CURRENTS"},"data":[0,0,0,0,0,0,0,0,0,0,0,0,0,0,0,0,0,0,0,0,0,0,0,0,0,0,0,0,0,0,0,0,0,0,0,0,0,0,0,0,0,0,0,0,0,0,0,0,0,0,0,0,0,0,0,0,0,0,0.256,0.256,0,0.2496,0.2495,0.2494,0.2466,0.2466,0.2467,0.2467,0.2423,0.2422,0.242,0,0,0,0,0,0,0,0,0,0,0,0,0,0.261,0.2609,0.256,0.256,0.2559,0.2496,0.2495,0.2494,0.2466,0.2466,0.2467,0.2467,0.2424,0.2422,0.242,0,0,0,0,0,0,0,0,0,0,0,0,0,0.2568,0.2609,0.256,0.254,0.2538,0.2497,0.2495,0.2494,0.2466,0.2466,0.2467,0.2467,0.2424,0.2422,0.242,0.2394,0,0,0.2413,0.2412,0,0,0,0,0,0,0,0,0.2571,0.2566,0.2544,0.2541,0.2539,0.2493,0.2497,0.2463,0.2465,0.2489,0.2467,0.2468,0.245,0.2446,0.2427,0.2392,0.239,0.2413,0.2411,0.241,0.241,0,0,0,0,0,0,0,0.2574,0.2568,0.2532,0.2543,0.254,0.2518,0.2513,0.249,0.2465,0.2487,0.2486,0.2484,0.2449,0.243,0.2426,0.239,0.2413,0.2411,0.2409,0.2409,0.2388,0.2388,0,0,0,0,0,0,0.259,0.2571,0.2534,0.253,0.256,0.2517,0.2511,0.2504,0.2465,0.246,0.2484,0.2483,0.2433,0.2429,0.2425,0.2446,0.241,0.2408,0.2407,0.2387,0.2388,0.2389,0,0,0,0,0,0,0.2591,0.2587,0.2536,0.2552,0.2545,0.2516,0.2508,0.2503,0.2492,0.2462,0.2458,0.2481,0.2433,0.2428,0.2419,0.2442,0.2407,0.2405,0.2386,0.2387,0.2388,0.2454,0,0,0,0,0,0,0.2593,0.2588,0.2583,0.2553,0.2544,0.2517,0.2508,0.2501,0.2491,0.249,0.2458,0.2454,0.2434,0.2423,0.2417,0.2438,0.2403,0.2385,0.2386,0.2388,0.2451,0.2457,0.2463,0,0,0,0,0,0.2595,0.2581,0.2583,0.2578,0.2541,0.2517,0.251,0.249,0.2491,0.2483,0.2472,0.2456,0.2429,0.2421,0.2414,0.2436,0.2384,0.2386,0.2388,0.2448,0.2456,0.2463,0,0,0,0,0,0,0.2588,0.2577,0.2578,0.2559,0.2547,0.2514,0.2501,0.2496,0.2478,0.2478,0.2457,0.2452,0.2457,0.2434,0.2426,0.2435,0.2407,0.2407,0.2455,0.2462,0.2468,0.2555,0.2401,0,0,0,0,0,0.259,0.2584,0.257,0.2555,0.2551,0.2531,0.2519,0.2508,0.2491,0.2483,0.2462,0.245,0.2456,0.245,0.2436,0.2432,0.2507,0.2444,0.245,0.2455,0.2521,0.2653,0.2679,0.2395,0.2395,0.2395,0,0,0.2581,0.2576,0.257,0.2555,0.2541,0.2536,0.2524,0.2506,0.2512,0.2482,0.2474,0.2467,0.246,0.2464,0.2464,0.2448,0.257,0.2457,0.2462,0.2527,0.2658,0.2687,0.2712,0.2396,0.2396,0.2395,0,0,0.2568,0.2561,0.2557,0.2553,0.2543,0.2534,0.2537,0.251,0.2511,0.25,0.2501,0.2529,0.2482,0.2517,0.2525,0.2559,0.2599,0.2527,0.2626,0.2751,0.2778,0.2802,0.292,0.2955,0.2527,0.2528,0.2528,0,0.2559,0.2561,0.255,0.255,0.2558,0.2541,0.2549,0.2539,0.2515,0.2548,0.2504,0.2553,0.2528,0.2618,0.2627,0.2581,0.2656,0.2595,0.2766,0.2791,0.2815,0.2931,0.2968,0.2531,0.253,0.253,0.253,0,0.2552,0.2557,0.2553,0.2561,0.2562,0.2561,0.2563,0.257,0.2567,0.258,0.2651,0.2643,0.2699,0.2674,0.2658,0.2811,0.2811,0.2762,0.2759,0.2849,0.2963,0.3001,0.2536,0.2535,0.2534,0.2533,0,0,0.2531,0.2549,0.2549,0.2576,0.2577,0.2582,0.2608,0.2654,0.2716,0.2703,0.2809,0.2824,0.2862,0.288,0.2875,0.2974,0.3177,0.2947,0.2952,0.3088,0.3475,0.3481,0.3522,0.316,0.3167,0.3173,0.3483,0,0.2538,0.2559,0.2565,0.2597,0.2618,0.2637,0.2675,0.2717,0.2753,0.2838,0.2898,0.2976,0.2926,0.2976,0.3075,0.3146,0.3283,0.31,0.335,0.3359,0.3373,0.3569,0.3452,0.3721,0.352,0.3526,0.3531,0,0.2538,0.2563,0.2601,0.2664,0.2677,0.27,0.2806,0.2838,0.2957,0.2998,0.3115,0.3152,0.3315,0.3244,0.3498,0.3383,0.3474,0.3523,0.3535,0.3563,0.3439,0.3599,0.3797,0.3617,0.3589,0.3585,0.3581,0,0.2558,0.2592,0.2639,0.2653,0.2712,0.2762,0.2805,0.2905,0.2957,0.3139,0.32,0.3387,0.3469,0.3635,0.3714,0.3643,0.3982,0.3883,0.3996,0.3995,0.3964,0.3949,0.4048,0.4136,0.4136,0.4135,0.4134,0,0.2574,0.2609,0.266,0.2688,0.2753,0.2805,0.2896,0.2971,0.3101,0.3189,0.3304,0.3417,0.3573,0.3735,0.3832,0.4047,0.4092,0.4112,0.4116,0.3976,0.396,0.3852,0.3713,0.4146,0.4144,0.4141,0.4139,0,0.2576,0.2612,0.2662,0.2738,0.2761,0.2814,0.2895,0.2971,0.3102,0.323,0.3297,0.3486,0.3725,0.387,0.4135,0.4184,0.4272,0.4446,0.427,0.425,0.4181,0.4048,0.4122,0.4013,0.468,0.4682,0.4685,0,0.2572,0.2604,0.267,0.2691,0.2724,0.2794,0.2841,0.2962,0.3038,0.3259,0.333,0.3592,0.3758,0.4152,0.4334,0.4597,0.4377,0.4617,0.4479,0.4259,0.4114,0.3901,0.3784,0.4455,0.4455,0.4455,0.4455,0,0.2555,0.2585,0.262,0.2661,0.2709,0.2743,0.2828,0.2871,0.3033,0.3161,0.3358,0.3525,0.391,0.4133,0.4461,0.4598,0.4364,0.463,0.446,0.4046,0.377,0.3633,0.4145,0.4456,0.4456,0.4456,0.4456,0.4456,0.2521,0.253,0.2573,0.2609,0.2647,0.2678,0.269,0.2803,0.2914,0.3088,0.3297,0.3526,0.3857,0.4324,0.4442,0.4507,0.4424,0.4408,0.4304,0.4139,0.3922,0.4453,0.471,0.4712,0.4713,0.4714,0.4715,0,0.2447,0.2473,0.251,0.2532,0.2536,0.2594,0.266,0.2677,0.2772,0.3008,0.3191,0.3523,0.3771,0.4026,0.4226,0.4155,0.4001,0.4035,0.3674,0.3606,0.4162,0.4034,0.4085,0.4085,0.4085,0.4085,0.4085,0.4086,0.2408,0.2415,0.2443,0.2416,0.2429,0.2414,0.2433,0.25,0.2635,0.2833,0.3028,0.324,0.3494,0.3685,0.3698,0.369,0.3383,0.3301,0.3231,0.3546,0.3569,0.359,0.344,0.3365,0.3364,0.2579,0.2572,0.2567]},{"header":{"parameterUnit":"m.s-1","parameterCategory":2,"la1":30.2991,"la2":30.254,"lo1":-89.0895,"lo2":-89.0444,"dy":0.0017,"dx":0.0017,"nx":28,"ny":28,"refTime":"2023-07-26T21:00:00:Z","depth":"0","parameterNumber":3,"parameterNumberName":"V-component_of_CURRENTS"},"data":[0,0,0,0,0,0,0,0,0,0,0,0,0,0,0,0,0,0,0,0,0,0,0,0,0,0,0,0,0,0,0,0,0,0,0,0,0,0,0,0,0,0,0,0,0,0,0,0,0,0,0,0,0,0,0,0,0,0,0.0089,0.0088,0,0.0031,0.003,0.003,0.0013,0.0013,0.0013,0.0012,-0.0053,-0.0054,-0.0056,0,0,0,0,0,0,0,0,0,0,0,0,0,0.0222,0.0219,0.0089,0.0088,0.0087,0.0031,0.003,0.003,0.0013,0.0013,0.0013,0.0012,-0.0052,-0.0054,-0.0056,0,0,0,0,0,0,0,0,0,0,0,0,0,0.0167,0.0219,0.0089,0.0069,0.0066,0.0031,0.003,0.003,0.0013,0.0013,0.0012,0.0012,-0.0052,-0.0054,-0.0057,-0.0071,0,0,-0.0064,-0.0065,0,0,0,0,0,0,0,0,0.017,0.0163,0.0073,0.007,0.0067,0.0026,0.0053,-0.0006,0.0013,0.0037,0.0012,0.0012,-0.003,-0.0034,-0.0039,-0.0074,-0.0077,-0.0065,-0.0066,-0.0067,-0.0068,0,0,0,0,0,0,0,0.0174,0.0165,0.007,0.0072,0.0068,0.0075,0.0067,0.0042,0.0008,0.0035,0.0032,0.002,-0.0031,-0.0037,-0.0041,-0.0078,-0.0065,-0.0067,-0.0068,-0.0069,-0.0121,-0.012,0,0,0,0,0,0,0.0171,0.0169,0.0072,0.0068,0.0115,0.0072,0.0063,0.0042,0.0008,0.0002,0.002,0.0019,-0.0032,-0.0038,-0.0044,-0.0034,-0.0067,-0.007,-0.0071,-0.0121,-0.0121,-0.012,0,0,0,0,0,0,0.0174,0.0163,0.0074,0.0115,0.0103,0.0069,0.0046,0.0041,0.0035,-0.0004,-0.001,0.0018,-0.0033,-0.004,-0.0054,-0.0038,-0.0071,-0.0073,-0.0121,-0.0121,-0.012,-0.0033,0,0,0,0,0,0,0.0178,0.0164,0.0151,0.0114,0.0101,0.0056,0.0045,0.004,0.0025,0.0024,-0.0007,-0.0014,-0.0033,-0.005,-0.0056,-0.0042,-0.0075,-0.0121,-0.0121,-0.012,-0.0036,-0.003,-0.0025,0,0,0,0,0,0.0183,0.0157,0.0151,0.0139,0.0082,0.0055,0.005,0.0029,0.0025,0.0024,0.001,-0.0012,-0.0053,-0.0051,-0.0059,-0.0045,-0.0121,-0.0121,-0.0121,-0.0039,-0.0031,-0.0025,0,0,0,0,0,0,0.0207,0.0152,0.0144,0.0103,0.0085,0.0051,0.004,0.0031,0.0019,0.0019,-0.0008,-0.0015,-0.0022,-0.0051,-0.0048,-0.0062,-0.0092,-0.0093,-0.0028,-0.0021,-0.0015,0.0045,-0.0077,0,0,0,0,0,0.0206,0.0175,0.0136,0.0109,0.0097,0.0074,0.006,0.0048,0.0029,0.0024,0.0005,-0.0016,-0.0028,-0.0036,-0.0059,-0.0065,-0.0062,-0.0064,-0.0058,-0.0053,-0.0011,0.0004,0.0016,-0.0119,-0.0119,-0.0119,0,0,0.0212,0.0175,0.0159,0.0113,0.0096,0.0093,0.0067,0.0047,0.006,0.0018,0.0028,0.0001,-0.0027,-0.0028,-0.0034,-0.0047,-0.0018,-0.0052,-0.0047,-0.0007,0.0006,0.0019,0.0031,-0.0119,-0.0119,-0.0119,0,0,0.0212,0.0173,0.0155,0.0141,0.0111,0.01,0.0098,0.007,0.0074,0.0073,0.0053,0.005,0.0013,0.0017,0.001,0.0033,0.0011,0.0004,0.0089,0.0102,0.0114,0.0125,0.0135,0.0146,0.001,0.001,0.0011,0,0.0225,0.0199,0.0151,0.014,0.0147,0.011,0.0126,0.0117,0.0095,0.0127,0.0085,0.0094,0.0047,0.0096,0.0093,0.0052,0.0053,0.0067,0.0114,0.0125,0.0135,0.0142,0.0154,0.0015,0.0014,0.0014,0.0013,0,0.022,0.0211,0.0202,0.0185,0.0184,0.0187,0.0175,0.0188,0.0185,0.0193,0.0233,0.0188,0.0212,0.0173,0.0136,0.0189,0.0163,0.0119,0.0107,0.0155,0.0158,0.0168,0.0021,0.0019,0.0018,0.0017,0,0,0.0239,0.0209,0.0212,0.0241,0.0218,0.0231,0.0257,0.03,0.0366,0.0332,0.0428,0.0377,0.0376,0.0369,0.0325,0.032,0.0356,0.0253,0.0251,0.0283,0.0391,0.0344,0.035,0.032,0.0322,0.0324,0.0361,0,0.0269,0.028,0.0257,0.0312,0.0334,0.0334,0.0383,0.0417,0.0441,0.0515,0.0499,0.0546,0.0444,0.0467,0.0451,0.0388,0.039,0.0351,0.0323,0.0324,0.0293,0.0363,0.0361,0.0392,0.0371,0.0373,0.0374,0,0.0289,0.0302,0.0351,0.0423,0.0438,0.0472,0.0589,0.0624,0.0701,0.0728,0.0776,0.076,0.0778,0.0668,0.0626,0.0606,0.0519,0.0453,0.0451,0.0397,0.0298,0.034,0.0411,0.0179,0.039,0.0389,0.0388,0,0.0356,0.0385,0.0444,0.0457,0.0512,0.0575,0.0624,0.0705,0.0778,0.0879,0.0943,0.0961,0.0975,0.0895,0.0735,0.0695,0.0673,0.0598,0.0486,0.0481,0.0473,0.0463,0.0341,0.0585,0.0585,0.0585,0.0585,0,0.0406,0.0461,0.0488,0.0525,0.0644,0.066,0.0807,0.086,0.0966,0.1076,0.1065,0.1145,0.1026,0.0983,0.0832,0.0703,0.0752,0.0543,0.0504,0.0497,0.0489,0.0279,0.017,0.0586,0.0586,0.0586,0.0586,0,0.0469,0.0475,0.0559,0.0638,0.0674,0.0767,0.0899,0.1009,0.1085,0.123,0.1268,0.1297,0.1254,0.1117,0.0986,0.0827,0.0596,0.0634,0.063,0.0591,0.027,0.0168,0.0095,0.0017,0.0557,0.0556,0.0556,0,0.0499,0.0541,0.0641,0.0707,0.0748,0.0874,0.0973,0.1068,0.1178,0.1314,0.1396,0.1407,0.1437,0.1248,0.0996,0.0791,0.0585,0.0614,0.0533,0.0288,0.0146,0.0083,0.0018,0.0551,0.055,0.055,0.055,0,0.0575,0.0609,0.0678,0.0797,0.0906,0.1029,0.1166,0.1257,0.1377,0.1488,0.1598,0.1636,0.1485,0.1313,0.1029,0.0839,0.0475,0.0596,0.0357,0.0164,0.008,-0.0026,0.0474,0.0545,0.0546,0.0546,0.0546,0.0547,0.064,0.0705,0.0789,0.0908,0.1025,0.1163,0.1262,0.1401,0.1557,0.1726,0.1744,0.1854,0.1593,0.1231,0.0929,0.0387,0.0426,0.0219,0.0128,0.0095,-0.0016,0.0472,0.0477,0.0477,0.0477,0.0477,0.0477,0,0.071,0.078,0.0895,0.103,0.1147,0.1201,0.1377,0.1472,0.1632,0.1841,0.1948,0.1931,0.1555,0.1123,0.0435,0.0004,-0.014,-0.0234,-0.0337,-0.0372,0.0075,0.0031,-0.0078,-0.0078,-0.0077,-0.0077,-0.0077,-0.0077,0.0757,0.0861,0.0914,0.11,0.1194,0.1335,0.1424,0.1567,0.1734,0.1967,0.2107,0.2209,0.1861,0.0638,-0.0281,-0.0495,-0.0771,-0.0807,-0.0946,-0.0696,-0.0662,-0.063,-0.0701,-0.0961,-0.0962,-0.1346,-0.135,-0.1353]}],[{"header":{"parameterUnit":"m.s-1","parameterCategory":2,"la1":30.2991,"la2":30.254,"lo1":-89.0895,"lo2":-89.0444,"dy":0.0017,"dx":0.0017,"nx":28,"ny":28,"refTime":"2023-07-26T21:00:00:Z","depth":"2","parameterNumber":2,"parameterNumberName":"U-component_of_CURRENTS"},"data":[0,0,0,0,0,0,0,0,0,0,0,0,0,0,0,0,0,0,0,0,0,0,0,0,0,0,0,0,0,0,0,0,0,0,0,0,0,0,0,0,0,0,0,0,0,0,0,0,0,0,0,0,0,0,0,0,0,0,0.2709,0.271,0,0.274,0.274,0.2741,0.2765,0.2766,0.2766,0.2767,0.2809,0.281,0.281,0,0,0,0,0,0,0,0,0,0,0,0,0,0.267,0.2671,0.2709,0.271,0.271,0.274,0.2741,0.2741,0.2765,0.2766,0.2766,0.2767,0.2809,0.281,0.281,0,0,0,0,0,0,0,0,0,0,0,0,0,0.2691,0.2671,0.2709,0.2728,0.273,0.274,0.2741,0.2741,0.2765,0.2766,0.2766,0.2767,0.2808,0.2809,0.281,0.2804,0,0,0.2814,0.2814,0,0,0,0,0,0,0,0,0.2689,0.2692,0.2724,0.2727,0.2729,0.2752,0.2742,0.2763,0.2765,0.2749,0.2767,0.2767,0.2792,0.2794,0.2795,0.2805,0.2807,0.2814,0.2814,0.2815,0.2815,0,0,0,0,0,0,0,0.2688,0.2691,0.2719,0.2725,0.2728,0.2735,0.2738,0.2746,0.2765,0.2751,0.2753,0.276,0.2793,0.2794,0.2796,0.2808,0.2814,0.2815,0.2815,0.2816,0.2878,0.2879,0,0,0,0,0,0,0.2688,0.2689,0.2718,0.272,0.2713,0.2735,0.2739,0.2742,0.2765,0.2769,0.2759,0.2761,0.2792,0.2795,0.2798,0.2818,0.2815,0.2816,0.2817,0.2877,0.2879,0.288,0,0,0,0,0,0,0.2687,0.269,0.2717,0.2708,0.2712,0.2735,0.2738,0.2742,0.2752,0.2771,0.2776,0.2767,0.2793,0.2797,0.2816,0.2819,0.2816,0.2817,0.2876,0.2878,0.2879,0.284,0,0,0,0,0,0,0.2686,0.2689,0.2693,0.2707,0.2712,0.2719,0.2738,0.2742,0.2756,0.2758,0.2779,0.2783,0.2793,0.2815,0.2817,0.282,0.2818,0.2875,0.2877,0.2879,0.284,0.284,0.284,0,0,0,0,0,0.2684,0.2676,0.2693,0.2696,0.2716,0.2719,0.2721,0.2739,0.2755,0.2751,0.2777,0.2783,0.283,0.2816,0.2819,0.2822,0.2874,0.2876,0.2879,0.284,0.284,0.284,0,0,0,0,0,0,0.265,0.2679,0.2697,0.2696,0.2709,0.2724,0.2723,0.274,0.2756,0.2764,0.2786,0.2792,0.2812,0.2828,0.2813,0.2851,0.2857,0.286,0.2827,0.2827,0.2827,0.2824,0.2819,0,0,0,0,0,0.2648,0.2655,0.268,0.2677,0.2686,0.2708,0.2714,0.2727,0.2744,0.2752,0.2765,0.2794,0.2823,0.2833,0.2852,0.2864,0.2912,0.2875,0.2875,0.2874,0.2877,0.2964,0.2972,0.2887,0.2887,0.2887,0,0,0.2633,0.265,0.2653,0.2672,0.2685,0.2685,0.2712,0.2718,0.2722,0.2754,0.2758,0.2788,0.2828,0.2845,0.2856,0.2857,0.2924,0.2877,0.2876,0.288,0.2967,0.2976,0.2983,0.2889,0.2889,0.2888,0,0,0.2594,0.2623,0.2614,0.2628,0.265,0.2667,0.2671,0.2688,0.2702,0.2711,0.2749,0.2786,0.2803,0.2842,0.2864,0.2879,0.2922,0.2887,0.2879,0.2962,0.297,0.2977,0.3043,0.3057,0.2885,0.2885,0.2885,0,0.2573,0.2575,0.2609,0.2604,0.2619,0.2658,0.2653,0.2668,0.2688,0.2717,0.2707,0.2789,0.2805,0.2871,0.2866,0.2877,0.2929,0.2868,0.2961,0.2969,0.2977,0.3044,0.3059,0.2883,0.2884,0.2884,0.2884,0,0.2529,0.2539,0.2533,0.255,0.2566,0.2568,0.2603,0.2623,0.2648,0.2676,0.2736,0.2768,0.2833,0.2835,0.2843,0.2917,0.2936,0.295,0.2955,0.2983,0.3052,0.3069,0.2881,0.2882,0.2882,0.2883,0,0,0.2464,0.2497,0.2498,0.2514,0.2546,0.2557,0.2578,0.2626,0.2673,0.2687,0.2751,0.2782,0.2829,0.286,0.2895,0.294,0.302,0.2956,0.2961,0.3012,0.3203,0.3117,0.3128,0.3053,0.3056,0.3058,0.3226,0,0.2423,0.2417,0.2446,0.2451,0.2458,0.2519,0.2547,0.26,0.2652,0.272,0.2783,0.2852,0.2834,0.2883,0.2925,0.3014,0.3064,0.2973,0.3178,0.3184,0.3096,0.3144,0.2777,0.2887,0.3242,0.3245,0.3247,0,0.2372,0.2385,0.2382,0.2442,0.2453,0.2466,0.2563,0.2592,0.2704,0.2757,0.2842,0.2903,0.2996,0.2969,0.3127,0.3074,0.313,0.3176,0.3184,0.3129,0.3129,0.292,0.2905,0.3276,0.3273,0.3271,0.3269,0,0.2323,0.2345,0.2353,0.2366,0.2428,0.246,0.2505,0.2607,0.2671,0.2802,0.2873,0.299,0.3075,0.316,0.3249,0.3207,0.3415,0.3384,0.336,0.3355,0.3095,0.3062,0.3489,0.3489,0.3488,0.3488,0.3487,0,0.2273,0.2281,0.2337,0.2341,0.2382,0.2437,0.2507,0.2582,0.271,0.2797,0.2899,0.3002,0.3126,0.3252,0.3304,0.3394,0.348,0.337,0.3397,0.307,0.3035,0.341,0.3398,0.3494,0.3493,0.3491,0.349,0,0.2213,0.2243,0.2262,0.233,0.2355,0.2388,0.2503,0.2564,0.2692,0.2814,0.2867,0.3055,0.3224,0.334,0.3509,0.3472,0.3565,0.3574,0.3173,0.3148,0.343,0.3415,0.3555,0.3554,0.3552,0.3551,0.355,0,0.2179,0.218,0.2246,0.2268,0.2297,0.2359,0.241,0.2543,0.2619,0.284,0.2902,0.3113,0.322,0.3438,0.3387,0.346,0.362,0.3216,0.3048,0.3426,0.344,0.3426,0.3413,0.2694,0.2687,0.268,0.2675,0,0.2124,0.2153,0.2176,0.2222,0.2267,0.2315,0.2399,0.2459,0.262,0.2739,0.2908,0.3011,0.3133,0.3036,0.3122,0.3118,0.3163,0.3087,0.3622,0.2729,0.2626,0.2636,0.2649,0.2618,0.2624,0.2628,0.2631,0.2633,0.2094,0.2103,0.2144,0.2183,0.2224,0.226,0.2285,0.2384,0.2495,0.257,0.2743,0.2761,0.275,0.2662,0.2646,0.2626,0.2821,0.2724,0.2739,0.2761,0.2626,0.2526,0.2474,0.2479,0.2483,0.2486,0.249,0,0.2066,0.2086,0.2108,0.2145,0.2152,0.2206,0.2273,0.2269,0.235,0.2347,0.2404,0.2159,0.2098,0.2196,0.1988,0.199,0.1915,0.2018,0.1878,0.1933,0.1983,0.1805,0.1437,0.1435,0.1433,0.1432,0,0,0.2056,0.2063,0.2074,0.2069,0.2093,0.2091,0.2113,0.2105,0.2094,0.1938,0.1849,0.1864,0.2013,0.1644,0.1609,0.1512,0.172,0.1461,0.2282,0.2164,0.2211,0.2349,0.2132,0,0,0,0,0]},{"header":{"parameterUnit":"m.s-1","parameterCategory":2,"la1":30.2991,"la2":30.254,"lo1":-89.0895,"lo2":-89.0444,"dy":0.0017,"dx":0.0017,"nx":28,"ny":28,"refTime":"2023-07-26T21:00:00:Z","depth":"2","parameterNumber":3,"parameterNumberName":"V-component_of_CURRENTS"},"data":[0,0,0,0,0,0,0,0,0,0,0,0,0,0,0,0,0,0,0,0,0,0,0,0,0,0,0,0,0,0,0,0,0,0,0,0,0,0,0,0,0,0,0,0,0,0,0,0,0,0,0,0,0,0,0,0,0,0,0.025,0.0249,0,0.0156,0.0155,0.0154,0.0088,0.0087,0.0087,0.0086,-0.0034,-0.0036,-0.0039,0,0,0,0,0,0,0,0,0,0,0,0,0,0.0339,0.0338,0.025,0.0249,0.0247,0.0156,0.0155,0.0154,0.0088,0.0087,0.0086,0.0086,-0.0033,-0.0036,-0.0039,0,0,0,0,0,0,0,0,0,0,0,0,0,0.028,0.0338,0.025,0.0203,0.0197,0.0157,0.0155,0.0154,0.0088,0.0087,0.0086,0.0085,-0.0032,-0.0035,-0.0039,-0.0044,0,0,-0.0051,-0.0053,0,0,0,0,0,0,0,0,0.0283,0.0277,0.0211,0.0206,0.02,0.0132,0.0143,0.0086,0.0088,0.0131,0.0086,0.0085,0.0019,0.0011,-0.0002,-0.005,-0.0055,-0.0051,-0.0054,-0.0056,-0.0057,0,0,0,0,0,0,0,0.0287,0.028,0.0214,0.021,0.0203,0.0175,0.0166,0.0132,0.0082,0.0127,0.0122,0.011,0.0016,0.0002,-0.0006,-0.0057,-0.0051,-0.0055,-0.0057,-0.0059,-0.0102,-0.01,0,0,0,0,0,0,0.0299,0.0284,0.0217,0.0211,0.0239,0.0174,0.0164,0.0155,0.0083,0.0071,0.0111,0.0107,0.0009,-0.0001,-0.001,-0.0006,-0.0055,-0.0059,-0.0061,-0.0103,-0.0101,-0.01,0,0,0,0,0,0,0.0302,0.0294,0.0221,0.0244,0.0233,0.0174,0.0165,0.0154,0.0143,0.007,0.0058,0.0111,0.0008,-0.0005,-0.0025,-0.0012,-0.0061,-0.0064,-0.0104,-0.0102,-0.0101,-0.0008,0,0,0,0,0,0,0.0305,0.0296,0.0304,0.0245,0.0232,0.0214,0.0165,0.0153,0.0137,0.0131,0.0067,0.0054,0.0006,-0.0018,-0.0029,-0.0018,-0.0067,-0.0106,-0.0103,-0.0101,-0.0012,-0.0003,0.0005,0,0,0,0,0,0.0308,0.0321,0.0305,0.0297,0.0241,0.0215,0.0207,0.0161,0.0138,0.0146,0.0103,0.0056,-0.0012,-0.002,-0.0033,-0.0023,-0.0107,-0.0104,-0.0101,-0.0016,-0.0005,0.0005,0,0,0,0,0,0,0.0361,0.0313,0.0295,0.0291,0.0264,0.0203,0.0203,0.0174,0.0146,0.0138,0.0072,0.0058,0.0047,0.0004,-0.0004,-0.0027,-0.0067,-0.0067,0.0002,0.0012,0.002,0.0011,-0.0071,0,0,0,0,0,0.0378,0.0377,0.0327,0.0328,0.0316,0.0265,0.025,0.022,0.0181,0.0167,0.0122,0.0077,0.0048,0.0025,-0.0006,-0.002,-0.008,-0.0022,-0.0013,-0.0005,-0.002,-0.0088,-0.0087,-0.0091,-0.0091,-0.0091,0,0,0.0398,0.0373,0.0371,0.034,0.0312,0.0301,0.0255,0.0239,0.0229,0.0159,0.0142,0.011,0.0055,0.0042,0.0032,0.0005,-0.003,-0.0002,0.0005,-0.0015,-0.0085,-0.0085,-0.0085,-0.0089,-0.009,-0.009,0,0,0.0428,0.0417,0.0419,0.0403,0.0369,0.034,0.0342,0.0292,0.0273,0.0257,0.0207,0.0185,0.0136,0.0097,0.0071,0.0109,0.0025,0.0103,0.0126,0.0062,0.0061,0.0059,0.0003,-0.0004,0.0098,0.0098,0.0098,0,0.0452,0.0442,0.0419,0.0415,0.04,0.0363,0.0357,0.0341,0.0293,0.0277,0.0265,0.0194,0.0159,0.0124,0.014,0.0126,0.0074,0.0093,0.0071,0.0068,0.0065,0.0007,-0.0002,0.0103,0.0102,0.0102,0.0101,0,0.0471,0.0468,0.0471,0.0452,0.0445,0.0437,0.0407,0.0402,0.0379,0.0347,0.032,0.0273,0.0222,0.022,0.0189,0.0154,0.0121,0.0098,0.0043,0.0071,0.0009,-0.0003,0.011,0.0108,0.0107,0.0106,0,0,0.0493,0.0484,0.0482,0.048,0.0459,0.0452,0.0454,0.043,0.0427,0.0391,0.0371,0.0332,0.0298,0.0267,0.0227,0.0174,0.0125,0.0128,0.0122,0.0068,-0.0021,0.0017,0.0007,0.0092,0.009,0.0089,-0.0048,0,0.0503,0.0506,0.0498,0.0506,0.05,0.0483,0.0491,0.0473,0.0454,0.0437,0.0382,0.036,0.0319,0.0304,0.0243,0.0162,0.0095,0.0164,-0.0038,-0.0044,-0.0018,-0.0005,-0.0021,-0.0139,-0.006,-0.0062,-0.0064,0,0.0505,0.0507,0.0512,0.0522,0.052,0.0527,0.0525,0.0528,0.0503,0.0491,0.0447,0.0406,0.034,0.0305,0.0144,0.0187,0.0083,0.0011,0.0003,-0.001,-0.0028,-0.0159,-0.0165,-0.0084,-0.0083,-0.0081,-0.008,0,0.0507,0.0513,0.0519,0.0519,0.0528,0.0534,0.0544,0.0536,0.0554,0.0522,0.0529,0.0431,0.0404,0.0255,0.0134,0.0121,-0.0043,-0.0082,-0.0157,-0.0156,-0.0234,-0.0236,-0.0224,-0.0224,-0.0223,-0.0223,-0.0223,0,0.0505,0.051,0.0523,0.0525,0.055,0.0551,0.0581,0.0581,0.0594,0.0629,0.0556,0.0565,0.0389,0.0291,0.0139,-0.0021,-0.0046,-0.016,-0.0191,-0.0197,-0.0193,-0.0201,-0.0197,-0.0228,-0.0227,-0.0226,-0.0225,0,0.05,0.0504,0.0518,0.0538,0.0549,0.0569,0.0627,0.0661,0.0664,0.0705,0.0704,0.0654,0.0548,0.0374,0.0158,0.0014,-0.0158,-0.0216,-0.0194,-0.0219,-0.0244,-0.0233,-0.0348,-0.0348,-0.0347,-0.0347,-0.0347,0,0.0499,0.0503,0.0534,0.0562,0.0573,0.0612,0.0658,0.0688,0.0743,0.0775,0.0809,0.0735,0.0726,0.0443,0.016,-0.0107,-0.012,-0.029,-0.0317,-0.0239,-0.0258,-0.0247,-0.0237,-0.0394,-0.0394,-0.0394,-0.0395,0,0.0509,0.0518,0.0542,0.0596,0.0643,0.0708,0.0778,0.0838,0.0893,0.0955,0.1034,0.1031,0.0761,0.0504,0.0151,-0.0032,-0.0246,-0.0302,-0.0257,-0.0326,-0.0284,-0.0301,-0.029,-0.0397,-0.0396,-0.0396,-0.0396,-0.0396,0.0529,0.0555,0.0597,0.0652,0.0716,0.0821,0.0899,0.1012,0.1141,0.1222,0.1191,0.1156,0.0812,0.0357,0.0081,-0.0231,-0.0243,-0.0381,-0.0381,-0.0381,-0.0328,-0.0284,-0.0388,-0.0388,-0.0388,-0.0387,-0.0387,0,0.0567,0.0605,0.066,0.0744,0.0838,0.0856,0.1,0.1117,0.1315,0.1304,0.1362,0.1029,0.0737,0.0394,-0.0095,-0.0367,-0.0401,-0.0415,-0.043,-0.0428,-0.0426,-0.0374,-0.0448,-0.0448,-0.0449,-0.0449,0,0,0.0593,0.0659,0.0693,0.0848,0.0914,0.1059,0.1155,0.1342,0.1402,0.1427,0.1328,0.1161,0.0754,0.0391,0.0027,-0.0206,-0.024,-0.0238,-0.0175,-0.015,-0.0143,-0.0407,-0.0325,0,0,0,0,0]}],[{"header":{"parameterUnit":"m.s-1","parameterCategory":2,"la1":30.2991,"la2":30.254,"lo1":-89.0895,"lo2":-89.0444,"dy":0.0017,"dx":0.0017,"nx":28,"ny":28,"refTime":"2023-07-26T21:00:00:Z","depth":"4","parameterNumber":2,"parameterNumberName":"U-component_of_CURRENTS"},"data":[0,0,0,0,0,0,0,0,0,0,0,0,0,0,0,0,0,0,0,0,0,0,0,0,0,0,0,0,0,0,0,0,0,0,0,0,0,0,0,0,0,0,0,0,0,0,0,0,0,0,0,0,0,0,0,0,0,0,0.0594,0.0595,0,0.0656,0.0657,0.0657,0.069,0.0691,0.0691,0.0692,0.0805,0.0807,0.081,0,0,0,0,0,0,0,0,0,0,0,0,0,0.0538,0.0538,0.0594,0.0595,0.0596,0.0656,0.0657,0.0657,0.069,0.0691,0.0692,0.0692,0.0804,0.0807,0.081,0,0,0,0,0,0,0,0,0,0,0,0,0,0.0572,0.0538,0.0594,0.0624,0.0628,0.0656,0.0657,0.0657,0.069,0.0691,0.0692,0.0693,0.0803,0.0807,0.081,0.0818,0,0,0.0822,0.0824,0,0,0,0,0,0,0,0,0.057,0.0573,0.0618,0.0622,0.0626,0.0671,0.0679,0.0715,0.069,0.0661,0.0692,0.0693,0.0768,0.0774,0.0776,0.0823,0.0828,0.0822,0.0825,0.0826,0.0827,0,0,0,0,0,0,0,0.0568,0.0571,0.0613,0.062,0.0624,0.0647,0.0652,0.0685,0.0706,0.0663,0.0667,0.0682,0.077,0.0772,0.0779,0.0829,0.0822,0.0826,0.0828,0.0829,0.1011,0.1013,0,0,0,0,0,0,0.0568,0.0569,0.0611,0.0616,0.0605,0.0647,0.0653,0.0652,0.0705,0.0715,0.0682,0.0684,0.0766,0.0775,0.0784,0.0893,0.0826,0.083,0.0832,0.1008,0.1011,0.1014,0,0,0,0,0,0,0.0566,0.057,0.0609,0.0599,0.0606,0.0648,0.0646,0.0652,0.0703,0.0719,0.0729,0.0732,0.0767,0.0778,0.0849,0.0894,0.0831,0.0835,0.1005,0.1009,0.1013,0.1049,0,0,0,0,0,0,0.0563,0.0568,0.0589,0.0598,0.0607,0.0647,0.0646,0.0653,0.071,0.0715,0.0764,0.0772,0.0768,0.0844,0.0853,0.0898,0.0838,0.1002,0.1007,0.1012,0.1045,0.1054,0.1062,0,0,0,0,0,0.0561,0.057,0.0589,0.0596,0.0626,0.0648,0.0655,0.0683,0.0713,0.0733,0.0774,0.0773,0.0881,0.0848,0.0859,0.0906,0.1,0.1006,0.1011,0.1041,0.1052,0.1061,0,0,0,0,0,0,0.0549,0.0575,0.0596,0.0612,0.0644,0.0656,0.0681,0.0714,0.0762,0.0781,0.0801,0.0812,0.0877,0.0901,0.0865,0.0976,0.0943,0.0951,0.0963,0.0973,0.0981,0.1001,0.0841,0,0,0,0,0,0.0559,0.058,0.0606,0.0626,0.0639,0.0675,0.07,0.0726,0.0761,0.0785,0.0825,0.0873,0.0902,0.0947,0.0963,0.1042,0.1027,0.1083,0.1092,0.1098,0.1124,0.1146,0.1158,0.1033,0.1033,0.1033,0,0,0.0564,0.0582,0.0597,0.0629,0.0649,0.0678,0.0691,0.0735,0.0774,0.079,0.0867,0.0892,0.0923,0.0982,0.102,0.102,0.1117,0.1106,0.1111,0.1134,0.1154,0.1165,0.1176,0.1037,0.1036,0.1036,0,0,0.0565,0.0595,0.0608,0.064,0.0689,0.0709,0.0737,0.0783,0.0817,0.0902,0.0902,0.0965,0.1049,0.1058,0.1078,0.1157,0.1138,0.1182,0.1268,0.1289,0.1299,0.1307,0.125,0.1253,0.1214,0.1214,0.1214,0,0.0574,0.0597,0.0619,0.0642,0.068,0.073,0.0763,0.0797,0.0872,0.0908,0.0942,0.105,0.1079,0.1127,0.1171,0.1173,0.1168,0.1218,0.1297,0.1305,0.1314,0.1254,0.1257,0.1216,0.1216,0.1216,0.1215,0,0.0585,0.0619,0.0629,0.0677,0.0714,0.0757,0.0803,0.0864,0.094,0.0981,0.107,0.1113,0.12,0.1208,0.1234,0.1309,0.1274,0.1275,0.1261,0.1328,0.126,0.1263,0.122,0.1219,0.1218,0.1217,0,0,0.0566,0.0626,0.0639,0.0672,0.0748,0.0775,0.0844,0.0912,0.097,0.1065,0.1147,0.1224,0.1286,0.1316,0.1338,0.1376,0.1418,0.1393,0.1392,0.1317,0.1427,0.1349,0.1343,0.145,0.1452,0.1454,0.1334,0,0.0579,0.0626,0.066,0.0727,0.0757,0.0829,0.088,0.0953,0.1038,0.1126,0.119,0.1274,0.1311,0.1384,0.1433,0.1442,0.144,0.1448,0.1392,0.1388,0.1298,0.135,0.1461,0.1336,0.1336,0.1337,0.1337,0,0.058,0.0621,0.0678,0.0756,0.0775,0.084,0.0952,0.1017,0.1124,0.1197,0.1312,0.1355,0.1464,0.1475,0.1526,0.1546,0.1509,0.1478,0.1472,0.1401,0.132,0.1273,0.1341,0.1341,0.1341,0.134,0.134,0,0.0558,0.0632,0.0683,0.0717,0.0806,0.0875,0.0964,0.1064,0.1122,0.1282,0.1345,0.145,0.1534,0.1553,0.1557,0.1569,0.1548,0.1536,0.1381,0.137,0.1453,0.1446,0.1512,0.1512,0.1513,0.1513,0.1513,0,0.0548,0.0602,0.0694,0.0736,0.082,0.09,0.1017,0.111,0.1231,0.129,0.142,0.1459,0.1575,0.1576,0.1562,0.1499,0.1557,0.1402,0.1359,0.1463,0.1459,0.145,0.1444,0.1508,0.1509,0.151,0.1511,0,0.0507,0.057,0.064,0.076,0.0813,0.0899,0.1073,0.1126,0.1269,0.1362,0.1421,0.1506,0.153,0.1535,0.1525,0.1486,0.1425,0.1347,0.1415,0.1374,0.1214,0.1212,0.1192,0.1188,0.1186,0.1183,0.1182,0,0.0488,0.051,0.065,0.0714,0.0794,0.0937,0.1005,0.1159,0.1214,0.1348,0.1358,0.1415,0.1455,0.1358,0.1396,0.1322,0.1286,0.1239,0.1287,0.1234,0.1194,0.1196,0.1198,0.1177,0.1177,0.1176,0.1175,0,0.0441,0.0496,0.0556,0.0683,0.0785,0.0872,0.1011,0.1019,0.1158,0.1279,0.1285,0.1292,0.1276,0.1282,0.1228,0.1172,0.1304,0.121,0.1216,0.126,0.1216,0.1179,0.1184,0.1166,0.1167,0.1168,0.1169,0,0.0411,0.0438,0.0521,0.0627,0.0743,0.0785,0.0861,0.0921,0.0985,0.1125,0.111,0.1163,0.1247,0.1192,0.1145,0.1114,0.1095,0.107,0.1082,0.1093,0.1126,0.106,0.0935,0,0,0,0,0,0.0371,0.0398,0.0465,0.0565,0.0667,0.074,0.083,0.0882,0.0987,0.0961,0.1048,0.1031,0.1021,0.1037,0.0978,0.1064,0.1072,0.0991,0.1043,0.1114,0.1125,0.1179,0,0,0,0,0,0,0.0352,0.0411,0.0426,0.0488,0.0545,0.0629,0.0676,0.0734,0.0737,0.0858,0.0842,0.0985,0.0962,0.1043,0.0965,0.0971,0.0984,0.1044,0.1042,0.1108,0.1118,0.1127,0.1186,0,0,0,0,0]},{"header":{"parameterUnit":"m.s-1","parameterCategory":2,"la1":30.2991,"la2":30.254,"lo1":-89.0895,"lo2":-89.0444,"dy":0.0017,"dx":0.0017,"nx":28,"ny":28,"refTime":"2023-07-26T21:00:00:Z","depth":"4","parameterNumber":3,"parameterNumberName":"V-component_of_CURRENTS"},"data":[0,0,0,0,0,0,0,0,0,0,0,0,0,0,0,0,0,0,0,0,0,0,0,0,0,0,0,0,0,0,0,0,0,0,0,0,0,0,0,0,0,0,0,0,0,0,0,0,0,0,0,0,0,0,0,0,0,0,0.0087,0.0087,0,0.0039,0.0039,0.0038,0.0029,0.0029,0.0029,0.003,-0.0061,-0.0064,-0.0066,0,0,0,0,0,0,0,0,0,0,0,0,0,0.0122,0.0122,0.0087,0.0087,0.0086,0.0039,0.0038,0.0038,0.0029,0.0029,0.0029,0.003,-0.006,-0.0063,-0.0067,0,0,0,0,0,0,0,0,0,0,0,0,0,0.0094,0.0121,0.0087,0.0076,0.0074,0.0039,0.0038,0.0038,0.0028,0.0029,0.003,0.003,-0.0059,-0.0063,-0.0067,-0.0104,0,0,-0.008,-0.0082,0,0,0,0,0,0,0,0,0.0095,0.0093,0.0078,0.0076,0.0075,0.004,0.0017,-0.0012,0.0028,0.0046,0.003,0.003,-0.0032,-0.0038,-0.0047,-0.0108,-0.0112,-0.008,-0.0083,-0.0084,-0.0086,0,0,0,0,0,0,0,0.0097,0.0094,0.0068,0.0077,0.0075,0.0056,0.0053,0.0012,0.0004,0.0044,0.0044,0.0038,-0.0033,-0.0043,-0.005,-0.0113,-0.008,-0.0084,-0.0086,-0.0088,-0.0246,-0.0248,0,0,0,0,0,0,0.0105,0.0096,0.007,0.0067,0.0086,0.0055,0.0052,0.0051,0.0005,-0.0001,0.0037,0.0038,-0.0037,-0.0045,-0.0053,-0.0114,-0.0084,-0.0088,-0.0091,-0.0245,-0.0247,-0.0248,0,0,0,0,0,0,0.0106,0.0103,0.0072,0.008,0.0075,0.0054,0.0053,0.005,0.0034,0.0,-0.0006,0.0025,-0.0036,-0.0047,-0.0109,-0.0117,-0.009,-0.0094,-0.0242,-0.0245,-0.0248,-0.0228,0,0,0,0,0,0,0.0107,0.0104,0.0103,0.0081,0.0075,0.0048,0.0052,0.0048,0.003,0.0029,-0.0013,-0.002,-0.0037,-0.0103,-0.0113,-0.0122,-0.0097,-0.024,-0.0244,-0.0247,-0.0226,-0.0229,-0.0232,0,0,0,0,0,0.0109,0.0109,0.0103,0.0099,0.0075,0.0048,0.0042,0.003,0.0029,0.0018,-0.0021,-0.0019,-0.013,-0.0108,-0.012,-0.013,-0.0239,-0.0243,-0.0246,-0.0225,-0.0229,-0.0232,0,0,0,0,0,0,0.0121,0.0107,0.01,0.0096,0.0071,0.0046,0.0039,0.0024,-0.0014,-0.0017,-0.0048,-0.0059,-0.0109,-0.0136,-0.0111,-0.0189,-0.0182,-0.0188,-0.0162,-0.0166,-0.0168,-0.0151,-0.0101,0,0,0,0,0,0.0123,0.012,0.0097,0.009,0.0082,0.0057,0.0043,0.003,-0.0004,-0.0019,-0.0051,-0.0094,-0.0135,-0.0163,-0.0199,-0.0252,-0.026,-0.0268,-0.0271,-0.0273,-0.027,-0.0312,-0.0317,-0.0261,-0.0261,-0.0261,0,0,0.0124,0.0116,0.0113,0.0092,0.0077,0.0066,0.0051,0.0029,0.0016,-0.0026,-0.0059,-0.0103,-0.0152,-0.0201,-0.0226,-0.0225,-0.029,-0.0278,-0.0278,-0.0274,-0.0316,-0.0321,-0.0326,-0.0264,-0.0263,-0.0263,0,0,0.013,0.012,0.0123,0.0103,0.0078,0.0064,0.0056,0.0023,0.0008,-0.0047,-0.007,-0.0126,-0.0195,-0.0225,-0.0251,-0.0299,-0.0299,-0.0314,-0.0319,-0.036,-0.0364,-0.0368,-0.0359,-0.0362,-0.0321,-0.0321,-0.0321,0,0.0134,0.0135,0.0115,0.011,0.01,0.0066,0.0063,0.0038,-0.0016,-0.0033,-0.0057,-0.0159,-0.0203,-0.0252,-0.0276,-0.0301,-0.0313,-0.0294,-0.036,-0.0364,-0.0368,-0.0359,-0.0363,-0.032,-0.032,-0.032,-0.032,0,0.0143,0.0139,0.0138,0.0128,0.011,0.0098,0.0067,0.0041,0.0009,-0.0021,-0.0085,-0.0158,-0.0219,-0.0246,-0.0283,-0.0334,-0.0327,-0.0349,-0.034,-0.0372,-0.0361,-0.0365,-0.032,-0.032,-0.032,-0.032,0,0,0.0167,0.0152,0.0151,0.0149,0.012,0.0107,0.0087,0.0059,0.0047,-0.0026,-0.0053,-0.0151,-0.0195,-0.023,-0.0279,-0.033,-0.0372,-0.0361,-0.0364,-0.0332,-0.0432,-0.0418,-0.0421,-0.0412,-0.0413,-0.0414,-0.0401,0,0.0184,0.019,0.0174,0.017,0.0171,0.0134,0.0122,0.0086,0.0043,0.0004,-0.0074,-0.0122,-0.0184,-0.0222,-0.0286,-0.0356,-0.0388,-0.0371,-0.0424,-0.0425,-0.0393,-0.0428,-0.0418,-0.0405,-0.0405,-0.0406,-0.0407,0,0.02,0.0205,0.0218,0.02,0.0197,0.0191,0.0167,0.0145,0.0088,0.0051,-0.0019,-0.0078,-0.0164,-0.0214,-0.0333,-0.0324,-0.0377,-0.0424,-0.0425,-0.0424,-0.0421,-0.0377,-0.0414,-0.0414,-0.0413,-0.0413,-0.0412,0,0.0238,0.0229,0.0247,0.0239,0.022,0.0219,0.0205,0.0163,0.0155,0.0085,0.0064,-0.0044,-0.0097,-0.0199,-0.0319,-0.0331,-0.0434,-0.0454,-0.0473,-0.047,-0.049,-0.0486,-0.0519,-0.0519,-0.0519,-0.052,-0.052,0,0.0261,0.0273,0.0268,0.0276,0.0291,0.0258,0.0267,0.0232,0.02,0.0192,0.0092,0.0055,-0.0105,-0.019,-0.0295,-0.0397,-0.0412,-0.0472,-0.048,-0.0479,-0.0475,-0.049,-0.0487,-0.0519,-0.0519,-0.0519,-0.0519,0,0.0293,0.0298,0.0313,0.0308,0.0313,0.032,0.0323,0.0319,0.0286,0.0271,0.0254,0.0132,0.0003,-0.0128,-0.0284,-0.0349,-0.0452,-0.0474,-0.0428,-0.0433,-0.0456,-0.0452,-0.0488,-0.0488,-0.0487,-0.0487,-0.0487,0,0.0306,0.0322,0.034,0.0363,0.0367,0.0382,0.0392,0.0367,0.0369,0.0314,0.0306,0.0189,0.0092,-0.0097,-0.0253,-0.0411,-0.0441,-0.0454,-0.0498,-0.0456,-0.0459,-0.0456,-0.0452,-0.0487,-0.0487,-0.0487,-0.0487,0,0.0319,0.0334,0.0348,0.0403,0.0427,0.0444,0.0459,0.0463,0.043,0.0425,0.0347,0.0227,0.0091,-0.0094,-0.0211,-0.0334,-0.0436,-0.0453,-0.0454,-0.0496,-0.0455,-0.0457,-0.0455,-0.0486,-0.0486,-0.0486,-0.0486,0,0.0324,0.0338,0.0371,0.0417,0.0461,0.0472,0.0475,0.0467,0.0462,0.0412,0.0388,0.0224,0.0139,-0.0052,-0.0171,-0.0287,-0.0323,-0.0339,-0.0347,-0.035,-0.0333,-0.0263,-0.0242,0,0,0,0,0,0.0315,0.034,0.0378,0.0414,0.0464,0.0492,0.0503,0.0499,0.0486,0.0445,0.042,0.029,0.0087,-0.0016,-0.0132,-0.0186,-0.0353,-0.0322,-0.0377,-0.0481,-0.0482,-0.0489,0,0,0,0,0,0,0.031,0.0352,0.0368,0.0412,0.0447,0.0481,0.0488,0.0472,0.045,0.0431,0.0313,0.0298,0.0082,0.0157,-0.0122,-0.0159,-0.0201,-0.0409,-0.041,-0.0481,-0.0482,-0.0482,-0.049,0,0,0,0,0]}]]